| time (UTC) | temp F | wind direction | speed MPH | gust MPH | rain 1hr in | rain 24hr in | rain mn in | humidity % | barometer mb |
| 20260903135458 | 69 | 261 | 0.0 | 0.0 | 0.00 | 0.43 | 0.43 | 96 | 1015.0 |
| 20260903135001 | 69 | 261 | 0.0 | 0.0 | 0.00 | 0.43 | 0.43 | 96 | 1015.0 |
| 20260903134458 | 69 | 261 | 0.0 | 0.0 | 0.00 | 0.43 | 0.43 | 96 | 1015.2 |
| 20260903134001 | 68 | 261 | 0.0 | 0.0 | 0.00 | 0.43 | 0.43 | 96 | 1015.2 |
| 20260903133459 | 68 | 261 | 0.0 | 0.0 | 0.00 | 0.43 | 0.43 | 96 | 1015.3 |
| 20260903131958 | 68 | 261 | 0.0 | 0.0 | 0.00 | 0.43 | 0.43 | 96 | 1015.3 |
| 20260903131508 | 68 | 261 | 0.0 | 0.0 | 0.00 | 0.43 | 0.43 | 96 | 1015.5 |
| 20260903131000 | 68 | 261 | 0.0 | 0.0 | 0.00 | 0.43 | 0.43 | 96 | 1015.6 |
| 20260903125958 | 68 | 261 | 0.0 | 0.0 | 0.00 | 0.43 | 0.43 | 96 | 1015.5 |
| 20260903125001 | 68 | 261 | 0.0 | 0.0 | 0.00 | 0.43 | 0.43 | 96 | 1015.6 |
| 20260903123958 | 68 | 261 | 0.0 | 0.0 | 0.00 | 0.43 | 0.43 | 96 | 1015.5 |
| 20260903123501 | 67 | 261 | 0.0 | 0.0 | 0.00 | 0.43 | 0.43 | 96 | 1015.7 |
| 20260903122959 | 67 | 261 | 0.0 | 0.0 | 0.00 | 0.43 | 0.43 | 96 | 1015.9 |
| 20260903122458 | 67 | 261 | 0.0 | 0.0 | 0.00 | 0.43 | 0.43 | 96 | 1016.0 |
| 20260903121958 | 67 | 261 | 0.0 | 0.0 | 0.00 | 0.43 | 0.43 | 96 | 1015.8 |
| 20260903120958 | 67 | 261 | 0.0 | 0.0 | 0.00 | 0.43 | 0.43 | 96 | 1016.0 |
| 20260903115458 | 67 | 261 | 2.0 | 3.0 | 0.00 | 0.43 | 0.43 | 96 | 1016.1 |
| 20260903114957 | 67 | 261 | 1.0 | 3.0 | 0.00 | 0.43 | 0.43 | 96 | 1016.1 |
| 20260903114458 | 67 | 261 | 1.0 | 3.0 | 0.00 | 0.43 | 0.43 | 96 | 1016.3 |
| 20260903113958 | 67 | 261 | 3.0 | 3.0 | 0.00 | 0.43 | 0.43 | 96 | 1016.3 |
| 20260903111958 | 67 | 261 | 2.0 | 3.0 | 0.00 | 0.43 | 0.43 | 96 | 1016.1 |
| 20260903111458 | 67 | 261 | 2.0 | 3.0 | 0.00 | 0.43 | 0.43 | 96 | 1016.1 |
| 20260903110958 | 67 | 261 | 2.0 | 3.0 | 0.00 | 0.43 | 0.43 | 96 | 1016.1 |
| 20260903110457 | 67 | 261 | 1.0 | 4.0 | 0.00 | 0.43 | 0.43 | 96 | 1016.1 |
| 20260903105459 | 67 | 261 | 3.0 | 3.0 | 0.00 | 0.43 | 0.43 | 96 | 1016.0 |
| 20260903105000 | 67 | 261 | 1.0 | 3.0 | 0.00 | 0.43 | 0.43 | 96 | 1016.0 |
| 20260903104459 | 67 | 261 | 1.0 | 3.0 | 0.00 | 0.43 | 0.43 | 96 | 1016.0 |
| 20260903103959 | 67 | 237 | 0.0 | 0.0 | 0.00 | 0.43 | 0.43 | 96 | 1015.9 |
| 20260903103500 | 66 | 235 | 0.0 | 0.0 | 0.00 | 0.43 | 0.43 | 96 | 1015.7 |
| 20260903102959 | 66 | 235 | 0.0 | 0.0 | 0.00 | 0.43 | 0.43 | 96 | 1015.7 |
| 20260903102459 | 66 | 235 | 0.0 | 0.0 | 0.00 | 0.43 | 0.43 | 96 | 1015.8 |
| 20260903101958 | 66 | 234 | 0.0 | 0.0 | 0.00 | 0.43 | 0.43 | 96 | 1016.0 |
| 20260903101459 | 66 | 234 | 0.0 | 0.0 | 0.00 | 0.43 | 0.43 | 96 | 1015.9 |
| 20260903101000 | 66 | 234 | 0.0 | 0.0 | 0.00 | 0.43 | 0.43 | 96 | 1015.8 |
| 20260903100459 | 66 | 234 | 0.0 | 0.0 | 0.00 | 0.43 | 0.43 | 96 | 1015.6 |
| 20260903095959 | 66 | 233 | 0.0 | 0.0 | 0.00 | 0.43 | 0.43 | 96 | 1015.3 |
| 20260903095458 | 66 | 233 | 0.0 | 0.0 | 0.00 | 0.43 | 0.43 | 96 | 1015.3 |
| 20260903094959 | 66 | 233 | 0.0 | 0.0 | 0.00 | 0.43 | 0.43 | 96 | 1015.4 |
| 20260903094458 | 66 | 233 | 0.0 | 0.0 | 0.01 | 0.43 | 0.43 | 96 | 1015.5 |
| 20260903093958 | 66 | 232 | 0.0 | 0.0 | 0.01 | 0.43 | 0.43 | 96 | 1015.4 |
| 20260903093459 | 66 | 232 | 0.0 | 0.0 | 0.01 | 0.43 | 0.43 | 96 | 1015.3 |
| 20260903092958 | 66 | 232 | 0.0 | 0.0 | 0.01 | 0.43 | 0.43 | 96 | 1015.3 |
| 20260903092458 | 66 | 232 | 0.0 | 0.0 | 0.01 | 0.43 | 0.43 | 96 | 1015.3 |
| 20260903091958 | 66 | 232 | 0.0 | 0.0 | 0.01 | 0.43 | 0.43 | 96 | 1015.3 |
| 20260903090958 | 66 | 232 | 0.0 | 0.0 | 0.01 | 0.43 | 0.43 | 96 | 1015.6 |
| 20260903083958 | 66 | 64 | 0.0 | 0.0 | 0.00 | 0.42 | 0.42 | 96 | 1015.6 |
| 20260903082957 | 66 | 64 | 0.0 | 0.0 | 0.00 | 0.42 | 0.42 | 96 | 1015.8 |
| 20260903082459 | 66 | 64 | 0.0 | 0.0 | 0.00 | 0.42 | 0.42 | 96 | 1015.8 |
| 20260903081958 | 66 | 64 | 0.0 | 0.0 | 0.00 | 0.42 | 0.42 | 95 | 1016.0 |
| 20260903081457 | 66 | 64 | 0.0 | 0.0 | 0.00 | 0.42 | 0.42 | 95 | 1016.1 |
| 20260903080958 | 66 | 64 | 0.0 | 0.0 | 0.00 | 0.42 | 0.42 | 95 | 1016.1 |
| 20260903080458 | 66 | 64 | 0.0 | 0.0 | 0.00 | 0.42 | 0.42 | 95 | 1016.1 |
| 20260903080001 | 66 | 64 | 0.0 | 0.0 | 0.00 | 0.42 | 0.42 | 95 | 1016.2 |
| 20260903075458 | 65 | 64 | 0.0 | 0.0 | 0.00 | 0.42 | 0.42 | 95 | 1016.2 |
| 20260903074959 | 65 | 64 | 0.0 | 0.0 | 0.00 | 0.42 | 0.42 | 95 | 1016.2 |
| 20260903074459 | 65 | 64 | 0.0 | 0.0 | 0.00 | 0.42 | 0.42 | 95 | 1016.2 |
| 20260903073459 | 65 | 64 | 0.0 | 0.0 | 0.01 | 0.42 | 0.42 | 95 | 1016.4 |
| 20260903072958 | 65 | 64 | 0.0 | 0.0 | 0.01 | 0.42 | 0.42 | 95 | 1016.4 |
| 20260903072459 | 65 | 64 | 0.0 | 0.0 | 0.01 | 0.42 | 0.42 | 95 | 1016.5 |
| 20260903071958 | 65 | 64 | 0.0 | 0.0 | 0.01 | 0.42 | 0.42 | 95 | 1016.6 |
| 20260903071459 | 65 | 64 | 0.0 | 0.0 | 0.02 | 0.42 | 0.42 | 95 | 1016.7 |
| 20260903070959 | 65 | 64 | 0.0 | 0.0 | 0.03 | 0.42 | 0.42 | 95 | 1016.7 |
| 20260903070459 | 65 | 64 | 0.0 | 0.0 | 0.04 | 0.42 | 0.42 | 95 | 1016.5 |
| 20260903065958 | 65 | 64 | 0.0 | 0.0 | 0.09 | 0.42 | 0.42 | 95 | 1016.5 |
| 20260903065458 | 65 | 64 | 0.0 | 1.0 | 0.18 | 0.42 | 0.42 | 95 | 1016.5 |
| 20260903064957 | 65 | 64 | 0.0 | 1.0 | 0.35 | 0.42 | 0.42 | 95 | 1016.5 |
| 20260903064457 | 64 | 64 | 0.0 | 1.0 | 0.40 | 0.42 | 0.42 | 95 | 1016.5 |
| 20260903063958 | 64 | 64 | 0.0 | 1.0 | 0.41 | 0.42 | 0.42 | 94 | 1016.4 |
| 20260903062958 | 64 | 64 | 0.0 | 0.0 | 0.41 | 0.41 | 0.41 | 94 | 1016.5 |
| 20260903062458 | 64 | 64 | 0.0 | 3.0 | 0.41 | 0.41 | 0.41 | 94 | 1016.7 |
| 20260903061958 | 64 | 64 | 0.0 | 3.0 | 0.41 | 0.41 | 0.41 | 94 | 1016.6 |
| 20260903061457 | 64 | 67 | 1.0 | 3.0 | 0.40 | 0.40 | 0.40 | 94 | 1016.7 |
| 20260903060958 | 64 | 58 | 3.0 | 3.0 | 0.39 | 0.39 | 0.39 | 94 | 1017.0 |
| 20260903060458 | 64 | 80 | 1.0 | 2.0 | 0.38 | 0.38 | 0.38 | 94 | 1017.3 |
| 20260903060001 | 64 | 80 | 0.0 | 4.0 | 0.33 | 0.33 | 0.33 | 94 | 1018.0 |
| 20260903055500 | 64 | 105 | 2.0 | 4.0 | 0.24 | 0.24 | 0.24 | 94 | 1018.0 |
| 20260903054958 | 64 | 246 | 0.0 | 6.0 | 0.07 | 0.07 | 0.07 | 94 | 1018.3 |
| 20260903054459 | 65 | 261 | 6.0 | 6.0 | 0.02 | 0.02 | 0.02 | 94 | 1018.3 |
| 20260903054000 | 64 | 59 | 0.0 | 0.0 | 0.01 | 0.01 | 0.01 | 94 | 1018.0 |
| 20260903053459 | 64 | 59 | 0.0 | 0.0 | 0.00 | 0.00 | 0.00 | 94 | 1018.2 |
| 20260903052459 | 64 | 59 | 0.0 | 0.0 | 0.00 | 0.00 | 0.00 | 94 | 1018.1 |
| 20260903051959 | 64 | 53 | 0.0 | 0.0 | 0.00 | 0.00 | 0.00 | 94 | 1018.1 |
| 20260903050459 | 64 | 53 | 0.0 | 1.0 | 0.00 | 0.00 | 0.00 | 94 | 1018.4 |
| 20260903050003 | 64 | 53 | 0.0 | 1.0 | 0.00 | 0.00 | 0.00 | 93 | 1018.4 |
| 20260903045501 | 64 | 53 | 0.0 | 1.0 | 0.00 | 0.00 | 0.00 | 93 | 1018.5 |
| 20260903045001 | 64 | 53 | 0.0 | 1.0 | 0.00 | 0.00 | 0.00 | 93 | 1018.6 |
| 20260903044501 | 64 | 53 | 0.0 | 0.0 | 0.00 | 0.00 | 0.00 | 93 | 1018.7 |
| 20260903043501 | 64 | 53 | 0.0 | 1.0 | 0.00 | 0.00 | 0.00 | 93 | 1018.7 |
| 20260903043001 | 64 | 50 | 0.0 | 1.0 | 0.00 | 0.00 | 0.00 | 93 | 1018.7 |
| 20260903042500 | 64 | 50 | 0.0 | 0.0 | 0.00 | 0.00 | 0.00 | 93 | 1018.7 |
| 20260903041001 | 64 | 50 | 0.0 | 1.0 | 0.00 | 0.00 | 0.00 | 93 | 1019.0 |
| 20260903040501 | 64 | 50 | 0.0 | 1.0 | 0.00 | 0.00 | 0.00 | 92 | 1019.1 |
| 20260903040000 | 64 | 50 | 0.0 | 1.0 | 0.00 | 0.00 | 0.00 | 92 | 1019.1 |
| 20260903035500 | 63 | 50 | 0.0 | 3.0 | 0.00 | 0.00 | 0.00 | 92 | 1018.9 |
| 20260903035000 | 63 | 50 | 0.0 | 3.0 | 0.00 | 0.00 | 0.00 | 92 | 1018.7 |
| 20260903034459 | 63 | 50 | 1.0 | 3.0 | 0.00 | 0.00 | 0.00 | 92 | 1018.7 |
| 20260903033500 | 63 | 69 | 0.0 | 3.0 | 0.00 | 0.00 | 0.00 | 92 | 1018.5 |
| 20260903033000 | 63 | 63 | 0.0 | 3.0 | 0.00 | 0.00 | 0.00 | 92 | 1018.5 |
| 20260903032000 | 63 | 40 | 4.0 | 5.0 | 0.00 | 0.00 | 0.00 | 92 | 1018.6 |
| 20260903030500 | 64 | 53 | 1.0 | 4.0 | 0.00 | 0.00 | 0.00 | 91 | 1019.0 |
| 20260903030003 | 64 | 71 | 2.0 | 4.0 | 0.00 | 0.00 | 0.00 | 91 | 1018.9 |
| 20260903025501 | 64 | 63 | 1.0 | 4.0 | 0.00 | 0.00 | 0.00 | 91 | 1019.4 |
| 20260903025001 | 63 | 53 | 3.0 | 5.0 | 0.00 | 0.00 | 0.00 | 91 | 1019.6 |
| 20260903024501 | 63 | 67 | 3.0 | 5.0 | 0.00 | 0.00 | 0.00 | 91 | 1019.5 |
| 20260903023500 | 63 | 72 | 3.0 | 5.0 | 0.00 | 0.00 | 0.00 | 91 | 1019.5 |
| 20260903023000 | 63 | 75 | 3.0 | 4.0 | 0.00 | 0.00 | 0.00 | 91 | 1019.6 |
| 20260903022500 | 63 | 71 | 3.0 | 4.0 | 0.00 | 0.00 | 0.00 | 91 | 1019.7 |
| 20260903021501 | 63 | 65 | 2.0 | 3.0 | 0.00 | 0.00 | 0.00 | 90 | 1019.8 |
| 20260903021000 | 63 | 65 | 1.0 | 3.0 | 0.00 | 0.00 | 0.00 | 90 | 1019.9 |
| 20260903020500 | 63 | 56 | 1.0 | 3.0 | 0.00 | 0.00 | 0.00 | 90 | 1020.0 |
| 20260903020003 | 63 | 74 | 2.0 | 3.0 | 0.00 | 0.00 | 0.00 | 90 | 1019.9 |
| 20260903015502 | 63 | 51 | 2.0 | 3.0 | 0.00 | 0.01 | 0.00 | 90 | 1020.0 |
| 20260903015001 | 63 | 51 | 0.0 | 3.0 | 0.00 | 0.01 | 0.00 | 90 | 1019.8 |
| 20260903014500 | 63 | 89 | 0.0 | 3.0 | 0.00 | 0.01 | 0.00 | 90 | 1019.8 |
| 20260903014001 | 64 | 46 | 0.0 | 3.0 | 0.00 | 0.01 | 0.00 | 89 | 1019.8 |
| 20260903013500 | 64 | 32 | 0.0 | 3.0 | 0.00 | 0.01 | 0.00 | 89 | 1019.8 |
| 20260903013001 | 64 | 40 | 0.0 | 2.0 | 0.00 | 0.01 | 0.00 | 89 | 1019.9 |
| 20260903012501 | 64 | 42 | 1.0 | 7.0 | 0.00 | 0.01 | 0.00 | 89 | 1019.9 |
| 20260903012001 | 64 | 42 | 2.0 | 7.0 | 0.00 | 0.01 | 0.00 | 89 | 1019.9 |
| 20260903011500 | 64 | 26 | 1.0 | 6.0 | 0.00 | 0.01 | 0.00 | 89 | 1019.9 |
| 20260903011001 | 64 | 59 | 4.0 | 6.0 | 0.00 | 0.01 | 0.00 | 89 | 1019.8 |
| 20260903010501 | 64 | 53 | 4.0 | 5.0 | 0.00 | 0.01 | 0.00 | 89 | 1019.9 |
| 20260903005459 | 64 | 5 | 1.0 | 4.0 | 0.00 | 0.01 | 0.00 | 89 | 1020.0 |
| 20260903004959 | 64 | 59 | 2.0 | 5.0 | 0.00 | 0.01 | 0.00 | 89 | 1020.0 |
| 20260903004000 | 64 | 72 | 3.0 | 5.0 | 0.00 | 0.01 | 0.00 | 89 | 1020.2 |
| 20260903003500 | 64 | 53 | 3.0 | 5.0 | 0.00 | 0.01 | 0.00 | 88 | 1020.1 |
| 20260903002959 | 64 | 70 | 3.0 | 5.0 | 0.00 | 0.01 | 0.00 | 89 | 1020.0 |
| 20260903002459 | 64 | 82 | 3.0 | 4.0 | 0.00 | 0.01 | 0.00 | 89 | 1019.9 |
| 20260903001959 | 64 | 71 | 3.0 | 4.0 | 0.00 | 0.01 | 0.00 | 89 | 1020.0 |
| 20260903001459 | 64 | 44 | 2.0 | 4.0 | 0.00 | 0.01 | 0.00 | 89 | 1019.8 |
| 20260903001000 | 64 | 57 | 3.0 | 5.0 | 0.00 | 0.01 | 0.00 | 89 | 1019.7 |
| 20260903000500 | 64 | 61 | 0.0 | 5.0 | 0.00 | 0.01 | 0.00 | 89 | 1019.7 |
| 20260903000003 | 64 | 80 | 4.0 | 9.0 | 0.00 | 0.01 | 0.00 | 89 | 1019.5 |
| 20260902235501 | 64 | 74 | 2.0 | 9.0 | 0.00 | 0.01 | 0.00 | 89 | 1019.6 |
| 20260902235001 | 64 | 41 | 4.0 | 6.0 | 0.00 | 0.01 | 0.00 | 89 | 1019.6 |
| 20260902234501 | 64 | 56 | 4.0 | 8.0 | 0.00 | 0.01 | 0.00 | 89 | 1019.6 |
| 20260902234001 | 64 | 76 | 3.0 | 8.0 | 0.00 | 0.01 | 0.00 | 89 | 1019.7 |
| 20260902233501 | 64 | 19 | 4.0 | 8.0 | 0.00 | 0.01 | 0.00 | 89 | 1019.7 |
| 20260902233000 | 64 | 5 | 5.0 | 9.0 | 0.00 | 0.01 | 0.00 | 89 | 1019.7 |
| 20260902232501 | 64 | 89 | 3.0 | 6.0 | 0.00 | 0.01 | 0.00 | 89 | 1019.9 |
| 20260902232001 | 64 | 44 | 3.0 | 6.0 | 0.00 | 0.01 | 0.00 | 89 | 1020.2 |
| 20260902231500 | 64 | 65 | 3.0 | 6.0 | 0.00 | 0.01 | 0.00 | 89 | 1020.3 |
| 20260902231000 | 65 | 5 | 1.0 | 6.0 | 0.00 | 0.01 | 0.00 | 88 | 1020.2 |
| 20260902230501 | 65 | 40 | 1.0 | 6.0 | 0.00 | 0.01 | 0.00 | 88 | 1020.2 |
| 20260902230000 | 65 | 65 | 1.0 | 6.0 | 0.00 | 0.25 | 0.00 | 88 | 1020.4 |
| 20260902225000 | 65 | 53 | 2.0 | 4.0 | 0.00 | 0.25 | 0.00 | 88 | 1020.5 |
| 20260902224500 | 65 | 116 | 2.0 | 3.0 | 0.00 | 0.25 | 0.00 | 87 | 1020.7 |
| 20260902223959 | 65 | 360 | 1.0 | 4.0 | 0.00 | 0.25 | 0.00 | 87 | 1020.9 |
| 20260902223459 | 65 | 41 | 2.0 | 5.0 | 0.00 | 0.25 | 0.00 | 87 | 1020.8 |
| 20260902222959 | 65 | 19 | 0.0 | 5.0 | 0.00 | 0.25 | 0.00 | 87 | 1020.8 |
| 20260902222500 | 65 | 340 | 0.0 | 4.0 | 0.00 | 0.25 | 0.00 | 87 | 1020.9 |
| 20260902221959 | 65 | 54 | 0.0 | 4.0 | 0.00 | 0.25 | 0.00 | 87 | 1020.9 |
| 20260902221500 | 66 | 59 | 2.0 | 3.0 | 0.00 | 0.25 | 0.00 | 87 | 1020.9 |
| 20260902221000 | 66 | 51 | 0.0 | 3.0 | 0.00 | 0.25 | 0.00 | 87 | 1020.9 |
| 20260902220459 | 66 | 61 | 3.0 | 4.0 | 0.00 | 0.25 | 0.00 | 87 | 1020.9 |
| 20260902220003 | 66 | 36 | 2.0 | 4.0 | 0.00 | 0.25 | 0.00 | 87 | 1020.9 |
| 20260902215459 | 66 | 56 | 3.0 | 3.0 | 0.00 | 0.26 | 0.00 | 86 | 1020.8 |
| 20260902214959 | 66 | 38 | 1.0 | 4.0 | 0.00 | 0.26 | 0.00 | 86 | 1020.8 |
| 20260902214459 | 66 | 335 | 2.0 | 4.0 | 0.00 | 0.26 | 0.00 | 87 | 1020.7 |
| 20260902214000 | 66 | 50 | 0.0 | 4.0 | 0.00 | 0.26 | 0.00 | 86 | 1020.7 |
| 20260902212959 | 66 | 41 | 0.0 | 4.0 | 0.00 | 0.26 | 0.00 | 85 | 1020.8 |
| 20260902212459 | 66 | 44 | 0.0 | 4.0 | 0.00 | 0.26 | 0.00 | 85 | 1020.8 |
| 20260902212000 | 66 | 321 | 1.0 | 4.0 | 0.00 | 0.26 | 0.00 | 85 | 1020.8 |
| 20260902211459 | 66 | 61 | 1.0 | 4.0 | 0.00 | 0.26 | 0.00 | 85 | 1020.7 |
| 20260902211000 | 66 | 61 | 1.0 | 4.0 | 0.00 | 0.26 | 0.00 | 87 | 1020.6 |
| 20260902205959 | 66 | 94 | 3.0 | 8.0 | 0.00 | 0.26 | 0.00 | 86 | 1020.5 |
| 20260902205500 | 66 | 71 | 1.0 | 6.0 | 0.00 | 0.26 | 0.00 | 85 | 1020.7 |
| 20260902205000 | 66 | 45 | 4.0 | 6.0 | 0.00 | 0.26 | 0.00 | 84 | 1020.8 |
| 20260902204459 | 66 | 23 | 1.0 | 9.0 | 0.00 | 0.26 | 0.00 | 84 | 1020.9 |
| 20260902203959 | 66 | 34 | 0.0 | 11.0 | 0.00 | 0.26 | 0.00 | 85 | 1020.6 |
| 20260902203500 | 66 | 47 | 3.0 | 6.0 | 0.00 | 0.26 | 0.00 | 87 | 1020.3 |
| 20260902202959 | 66 | 61 | 2.0 | 6.0 | 0.00 | 0.26 | 0.00 | 86 | 1020.4 |
| 20260902202459 | 66 | 24 | 3.0 | 7.0 | 0.00 | 0.26 | 0.00 | 85 | 1020.5 |
| 20260902202000 | 66 | 9 | 3.0 | 7.0 | 0.00 | 0.26 | 0.00 | 85 | 1020.5 |
| 20260902201500 | 67 | 44 | 3.0 | 7.0 | 0.00 | 0.26 | 0.00 | 86 | 1020.5 |
| 20260902200959 | 66 | 26 | 1.0 | 3.0 | 0.00 | 0.26 | 0.00 | 87 | 1020.4 |
| 20260902200500 | 66 | 44 | 2.0 | 3.0 | 0.00 | 0.26 | 0.00 | 87 | 1020.4 |
| 20260902200000 | 66 | 340 | 0.0 | 3.0 | 0.00 | 0.26 | 0.00 | 87 | 1020.4 |
| 20260902195459 | 66 | 332 | 0.0 | 2.0 | 0.00 | 0.26 | 0.00 | 88 | 1020.6 |
| 20260902195007 | 66 | 332 | 0.0 | 2.0 | 0.00 | 0.26 | 0.00 | 87 | 1020.7 |
| 20260902194459 | 66 | 73 | 0.0 | 1.0 | 0.00 | 0.26 | 0.00 | 86 | 1020.7 |
| 20260902193959 | 66 | 286 | 0.0 | 1.0 | 0.00 | 0.26 | 0.00 | 84 | 1020.9 |
| 20260902193502 | 66 | 286 | 0.0 | 0.0 | 0.00 | 0.26 | 0.00 | 84 | 1021.3 |
| 20260902193003 | 66 | 286 | 0.0 | 0.0 | 0.00 | 0.26 | 0.00 | 83 | 1021.6 |
| 20260902192500 | 67 | 286 | 0.0 | 0.0 | 0.00 | 0.26 | 0.00 | 82 | 1021.6 |
| 20260902191959 | 67 | 286 | 0.0 | 1.0 | 0.00 | 0.26 | 0.00 | 81 | 1021.6 |
| 20260902191500 | 67 | 286 | 0.0 | 5.0 | 0.00 | 0.26 | 0.00 | 80 | 1021.5 |
| 20260902190500 | 67 | 46 | 0.0 | 5.0 | 0.00 | 0.26 | 0.00 | 79 | 1021.2 |
| 20260902185459 | 67 | 332 | 1.0 | 5.0 | 0.00 | 0.26 | 0.00 | 79 | 1021.2 |
| 20260902185000 | 67 | 48 | 2.0 | 5.0 | 0.00 | 0.26 | 0.00 | 79 | 1021.1 |
| 20260902184459 | 68 | 198 | 0.0 | 5.0 | 0.00 | 0.26 | 0.00 | 76 | 1021.2 |
| 20260902183959 | 68 | 36 | 2.0 | 5.0 | 0.00 | 0.26 | 0.00 | 78 | 1021.1 |
| 20260902183459 | 68 | 80 | 2.0 | 6.0 | 0.00 | 0.26 | 0.00 | 76 | 1020.9 |
| 20260902182959 | 69 | 293 | 0.0 | 6.0 | 0.00 | 0.26 | 0.00 | 74 | 1021.0 |
| 20260902182500 | 69 | 75 | 2.0 | 4.0 | 0.00 | 0.26 | 0.00 | 76 | 1021.0 |
| 20260902181459 | 69 | 50 | 1.0 | 4.0 | 0.00 | 0.26 | 0.00 | 76 | 1021.3 |
| 20260902180959 | 69 | 51 | 2.0 | 3.0 | 0.00 | 0.26 | 0.00 | 76 | 1021.4 |
| 20260902180500 | 68 | 219 | 0.0 | 3.0 | 0.00 | 0.26 | 0.00 | 78 | 1021.5 |
| 20260902180002 | 68 | 17 | 0.0 | 4.0 | 0.00 | 0.26 | 0.00 | 77 | 1021.5 |
| 20260902175459 | 68 | 351 | 1.0 | 4.0 | 0.00 | 0.26 | 0.00 | 75 | 1021.6 |
| 20260902174959 | 68 | 35 | 0.0 | 2.0 | 0.00 | 0.26 | 0.00 | 77 | 1021.5 |
| 20260902173959 | 68 | 242 | 0.0 | 3.0 | 0.00 | 0.26 | 0.00 | 74 | 1021.6 |
| 20260902173459 | 68 | 232 | 2.0 | 3.0 | 0.00 | 0.26 | 0.00 | 74 | 1021.6 |
| 20260902172959 | 68 | 203 | 0.0 | 1.0 | 0.00 | 0.26 | 0.00 | 72 | 1021.7 |
| 20260902172459 | 69 | 203 | 0.0 | 1.0 | 0.00 | 0.26 | 0.00 | 74 | 1021.8 |
| 20260902171959 | 69 | 203 | 0.0 | 2.0 | 0.00 | 0.26 | 0.00 | 74 | 1021.7 |
| 20260902170459 | 70 | 360 | 2.0 | 5.0 | 0.00 | 0.26 | 0.00 | 79 | 1021.1 |
| 20260902165458 | 70 | 87 | 0.0 | 9.0 | 0.00 | 0.26 | 0.00 | 76 | 1021.1 |
| 20260902164958 | 70 | 88 | 5.0 | 9.0 | 0.00 | 0.26 | 0.00 | 76 | 1021.2 |
| 20260902164459 | 70 | 44 | 7.0 | 9.0 | 0.00 | 0.26 | 0.00 | 75 | 1021.3 |
| 20260902163958 | 70 | 65 | 3.0 | 6.0 | 0.00 | 0.26 | 0.00 | 78 | 1021.4 |
| 20260902163458 | 69 | 32 | 3.0 | 6.0 | 0.00 | 0.26 | 0.00 | 78 | 1021.6 |
| 20260902162458 | 68 | 66 | 2.0 | 5.0 | 0.00 | 0.26 | 0.00 | 77 | 1021.5 |
| 20260902161958 | 68 | 44 | 3.0 | 10.0 | 0.00 | 0.26 | 0.00 | 78 | 1021.6 |
| 20260902160458 | 68 | 61 | 3.0 | 6.0 | 0.00 | 0.26 | 0.00 | 75 | 1021.5 |
| 20260902160001 | 68 | 61 | 2.0 | 9.0 | 0.00 | 0.26 | 0.00 | 77 | 1021.5 |
| 20260902155459 | 69 | 62 | 0.0 | 9.0 | 0.00 | 0.26 | 0.00 | 79 | 1021.6 |
| 20260902155000 | 69 | 217 | 0.0 | 4.0 | 0.00 | 0.26 | 0.00 | 78 | 1021.6 |
| 20260902154459 | 69 | 101 | 0.0 | 4.0 | 0.00 | 0.26 | 0.00 | 81 | 1021.7 |
| 20260902153459 | 68 | 65 | 3.0 | 8.0 | 0.00 | 0.26 | 0.00 | 81 | 1021.9 |
| 20260902152959 | 68 | 57 | 3.0 | 8.0 | 0.00 | 0.26 | 0.00 | 81 | 1021.9 |
| 20260902152459 | 68 | 58 | 2.0 | 5.0 | 0.00 | 0.26 | 0.00 | 83 | 1022.0 |
| 20260902152000 | 67 | 44 | 4.0 | 4.0 | 0.00 | 0.26 | 0.00 | 84 | 1022.0 |
| 20260902151502 | 67 | 57 | 1.0 | 4.0 | 0.00 | 0.26 | 0.00 | 83 | 1022.1 |
| 20260902151000 | 67 | 57 | 2.0 | 5.0 | 0.00 | 0.26 | 0.00 | 84 | 1022.1 |
| 20260902150500 | 67 | 52 | 4.0 | 5.0 | 0.00 | 0.26 | 0.00 | 84 | 1022.0 |
| 20260902150003 | 66 | 67 | 0.0 | 3.0 | 0.00 | 0.26 | 0.00 | 83 | 1021.9 |
| 20260902145458 | 66 | 56 | 1.0 | 3.0 | 0.00 | 0.28 | 0.00 | 85 | 1022.0 |
| 20260902144958 | 66 | 47 | 0.0 | 4.0 | 0.00 | 0.28 | 0.00 | 85 | 1022.0 |
| 20260902144458 | 66 | 46 | 0.0 | 5.0 | 0.00 | 0.28 | 0.00 | 84 | 1021.9 |
| 20260902143959 | 65 | 32 | 4.0 | 6.0 | 0.00 | 0.28 | 0.00 | 83 | 1022.0 |
| 20260902143459 | 65 | 63 | 3.0 | 4.0 | 0.00 | 0.28 | 0.00 | 84 | 1021.9 |
| 20260902142958 | 65 | 70 | 2.0 | 5.0 | 0.00 | 0.28 | 0.00 | 85 | 1021.9 |
| 20260902142458 | 65 | 67 | 1.0 | 6.0 | 0.00 | 0.28 | 0.00 | 85 | 1022.0 |
| 20260902141459 | 65 | 60 | 2.0 | 8.0 | 0.00 | 0.28 | 0.00 | 87 | 1022.0 |
| 20260902140458 | 64 | 61 | 4.0 | 6.0 | 0.00 | 0.28 | 0.00 | 88 | 1021.9 |
| 20260902140002 | 64 | 42 | 3.0 | 4.0 | 0.00 | 0.28 | 0.00 | 89 | 1022.0 |